Вернуться в каталог

FREGAT DEB

LostUNKNOWN
NORAD 45975·DEBRIS·🇷🇺 Russia

Запущен Jul 18, 2011 с Baikonur Cosmodrome

Loading…

Ближайшие Пролёты (ближайшие 24 часа)

TLE

УстаревшееSource: Space-Track

Эпоха: Sep 14, 2020, 23:23 UTC

1 45975U 11037GG  20258.97487394  .00543463  00000-0  24049+0 0  9993
2 45975  51.5433 158.3633 2010925 204.1358 145.0771 10.85930530  5783

Отслеживайте FREGAT DEB в реальном времени с AllMySat

Download on the App Store